KA9LHE Weather Reports


Display with metric or nautical units.
time (UTC)temp
F
wind
direction
speed
MPH
gust
MPH
rain 1hr
in
rain 24hr
in
rain mn
in
humidity
%
barometer
mb
20260504201559 76 248 15.0 32.0 0.00 0.01 0.01 48 1003.0
20260504194608 75 206 15.0 54.0 0.00 0.02 0.01 48 1003.7
20260504193111 74 193 14.0 25.0 0.00 0.02 0.01 50 1003.6
20260504191558 75 209 10.0 33.0 0.00 0.02 0.01 49 1003.6
20260504190117 75 194 15.0 29.0 0.00 0.02 0.01 50 1003.7
20260504184607 75 192 14.0 29.0 0.00 0.03 0.01 52 1003.8
20260504183101 75 208 13.0 25.0 0.01 0.03 0.01 55 1004.0
20260504181608 74 190 10.0 24.0 0.01 0.03 0.01 55 1003.9
20260504180103 73 179 12.0 22.0 0.01 0.03 0.01 56 1004.1
20260504174612 73 174 13.0 28.0 0.01 0.04 0.01 57 1004.4
20260504173120 72 220 11.0 24.0 0.00 0.03 0.00 56 1004.7
20260504171604 71 0 4.0 21.0 0.00 0.03 0.00 59 1005.1
20260504160109 68 0 0.0 0.0 0.00 0.06 0.00 62 1005.9
20260504150109 64 0 0.0 0.0 0.00 0.09 0.00 65 1006.3
20260504140112 60 201 5.0 14.0 0.00 0.13 0.00 71 1006.6
20260504110119 50 183 5.0 18.0 0.00 0.37 0.00 80 1007.2
20260504100105 49 180 4.0 10.0 0.00 0.38 0.00 81 1007.1
20260504090121 49 142 6.0 11.0 0.00 0.38 0.00 83 1007.0
20260504081558 48 165 4.0 9.0 0.00 0.38 0.00 85 1007.7
20260504044606 47 150 3.0 8.0 0.00 0.38 0.00 86 1009.6
20260504043101 47 155 4.0 9.0 0.00 0.38 0.00 86 1009.7
20260504041602 47 155 5.0 8.0 0.00 0.38 0.00 85 1009.8
20260504040107 48 150 3.0 7.0 0.00 0.38 0.00 85 1009.9
20260504034605 48 159 5.0 11.0 0.00 0.38 0.38 84 1010.1
20260504033116 48 144 5.0 12.0 0.00 0.38 0.38 84 1010.3
20260504031608 48 144 4.0 9.0 0.00 0.38 0.38 85 1010.3
20260504030059 48 135 4.0 8.0 0.00 0.38 0.38 85 1010.5
20260504024607 48 138 3.0 9.0 0.00 0.39 0.38 85 1010.5
20260504023059 48 157 6.0 12.0 0.00 0.39 0.38 85 1010.7
20260504021602 48 146 6.0 13.0 0.00 0.39 0.38 84 1010.8
20260504014558 49 151 7.0 16.0 0.00 0.39 0.38 85 1010.7
20260504013058 49 153 6.0 12.0 0.00 0.39 0.38 85 1010.8
20260504011558 49 146 7.0 14.0 0.00 0.39 0.38 85 1010.9
20260504010109 49 142 7.0 14.0 0.00 0.39 0.38 85 1010.9
20260504004603 49 150 8.0 13.0 0.00 0.39 0.38 85 1011.0
20260504003100 49 155 5.0 13.0 0.00 0.39 0.38 84 1011.2
20260504001614 49 144 7.0 12.0 0.00 0.39 0.38 84 1011.3
20260504000059 49 146 8.0 12.0 0.00 0.39 0.38 83 1011.3
20260503234601 49 145 9.0 20.0 0.00 0.40 0.38 83 1011.4
20260503233059 49 150 8.0 14.0 0.00 0.40 0.38 83 1011.5
20260503231558 49 132 7.0 14.0 0.00 0.40 0.38 82 1011.6
20260503230101 49 143 7.0 15.0 0.00 0.40 0.38 82 1011.8
20260503224557 49 136 6.0 11.0 0.00 0.40 0.38 83 1011.8
20260503223100 49 133 8.0 18.0 0.00 0.40 0.38 82 1012.0
20260503221601 49 135 6.0 11.0 0.00 0.40 0.38 83 1012.3
20260503220112 49 144 7.0 14.0 0.00 0.40 0.38 82 1012.3
20260503214600 50 136 7.0 14.0 0.00 0.40 0.38 81 1012.4
20260503213100 51 180 10.0 17.0 0.00 0.40 0.38 80 1012.8
20260503211609 51 182 7.0 20.0 0.00 0.40 0.38 78 1013.4
20260503210059 51 202 12.0 29.0 0.00 0.40 0.38 74 1013.7
20260503204606 52 195 14.0 29.0 0.00 0.41 0.38 70 1014.0
20260503203059 53 221 13.0 30.0 0.01 0.41 0.38 67 1014.2